Danbury, CT

11:36 AM EDT on August 28, 2016 (GMT -0400)
Danbury Municipal

Weather History for KDXR - May, 2013

Change the Weather History Date:

Wednesday, May 8, 2013

  Actual Average Record
Temperature  
Mean Temperature 60 °F -  
Max Temperature 64 °F 66 °F 87 °F (1964)
Min Temperature 54 °F 42 °F 30 °F (1974)
Degree Days  
Heating Degree Days 4    
Growing Degree Days 10 (Base 50)    
Moisture  
Dew Point 57 °F    
Average Humidity 88    
Maximum Humidity 94    
Minimum Humidity 81    
Precipitation  
Precipitation 0.72 in - - ()
Sea Level Pressure  
Sea Level Pressure 30.07 in    
Wind  
Wind Speed 6 mph (East)    
Max Wind Speed 14 mph    
Max Gust Speed 22 mph    
Visibility 7 miles    
Events Rain    
Averages and records for this station are not official NWS values.
T = Trace of Precipitation, MM = Missing Value Source: NWS Daily Summary

Daily Weather History Graph

Daily Weather History Graph

Search for Another Location

Airport or City:

Trip Planner

Search our weather history database for the weather conditions in past years. The results will help you decide how hot, cold, wet, or windy it might be!

Date:

Astronomy

May. 08, 2013 Rise Set
Actual Time 5:42 AM EDT 7:59 PM EDT
Civil Twilight 5:11 AM EDT 8:29 PM EDT
Nautical Twilight 4:33 AM EDT 9:08 PM EDT
Astronomical Twilight 3:51 AM EDT 9:50 PM EDT
Moon 4:49 AM EDT (5/8) 6:54 PM EDT (5/8)
Length of Visible Light 15h 18m
Length of Day
14h 16m
Waning Crescent, 2% of the Moon is Illuminated
May 8
Waning Crescent
May 9
New
May 18
First Quarter
May 25
Full
May 31
Last Quarter

Hourly Weather History & Observations

Time (EDT) Temp. Dew Point Humidity Pressure Visibility Wind Dir Wind Speed Gust Speed Precip Events Conditions
12:53 AM 59.0 °F 53.1 °F 81% 30.13 in 10.0 mi East 4.6 mph - N/A   Clear
1:53 AM 57.9 °F 53.1 °F 84% 30.12 in 10.0 mi Calm Calm - N/A   Mostly Cloudy
2:15 AM 57.2 °F 53.6 °F 88% 30.12 in 10.0 mi Calm Calm - N/A   Overcast
2:53 AM 57.9 °F 54.0 °F 87% 30.10 in 10.0 mi NE 3.5 mph - N/A   Scattered Clouds
3:25 AM 57.2 °F 53.6 °F 88% 30.11 in 10.0 mi East 3.5 mph - N/A   Partly Cloudy
3:53 AM 57.9 °F 54.0 °F 87% 30.10 in 10.0 mi Calm Calm - N/A   Scattered Clouds
4:01 AM 57.2 °F 53.6 °F 88% 30.10 in 10.0 mi Calm Calm - N/A   Mostly Cloudy
4:53 AM 57.9 °F 54.0 °F 87% 30.09 in 10.0 mi NE 3.5 mph - N/A   Overcast
5:49 AM 57.2 °F 55.4 °F 94% 30.11 in 8.0 mi NE 4.6 mph - N/A   Overcast
5:53 AM 57.9 °F 55.0 °F 90% 30.10 in 8.0 mi NE 5.8 mph - N/A   Mostly Cloudy
6:40 AM 57.2 °F 55.4 °F 94% 30.11 in 9.0 mi ENE 4.6 mph - N/A   Mostly Cloudy
6:53 AM 57.9 °F 55.0 °F 90% 30.12 in 10.0 mi ENE 4.6 mph - N/A   Mostly Cloudy
7:53 AM 59.0 °F 55.0 °F 87% 30.12 in 9.0 mi East 9.2 mph - 0.00 in Rain Light Rain
7:55 AM 59.0 °F 55.4 °F 88% 30.12 in 9.0 mi East 8.1 mph - 0.00 in Rain Light Rain
8:17 AM 59.0 °F 55.4 °F 88% 30.13 in 1.8 mi East 5.8 mph - 0.04 in Rain Heavy Rain
8:25 AM 59.0 °F 55.4 °F 88% 30.12 in 3.0 mi ENE 6.9 mph - 0.05 in Rain Light Rain
8:49 AM 59.0 °F 55.4 °F 88% 30.12 in 9.0 mi NE 8.1 mph - 0.05 in   Overcast
8:53 AM 59.0 °F 55.9 °F 90% 30.12 in 9.0 mi ENE 8.1 mph - 0.05 in   Overcast
9:07 AM 59.0 °F 57.2 °F 94% 30.11 in 1.8 mi ENE 8.1 mph - 0.05 in Rain Heavy Rain
9:19 AM 59.0 °F 57.2 °F 94% 30.11 in 3.0 mi ENE 4.6 mph - 0.10 in Rain Light Rain
9:53 AM 61.0 °F 57.9 °F 90% 30.11 in 10.0 mi ENE 4.6 mph - 0.20 in   Overcast
10:53 AM 62.1 °F 59.0 °F 90% 30.09 in 2.0 mi East 13.8 mph 21.9 mph 0.06 in Rain Heavy Rain
10:58 AM 62.6 °F 59.0 °F 88% 30.10 in 2.0 mi East 12.7 mph 21.9 mph 0.01 in Rain Rain
11:06 AM 62.6 °F 59.0 °F 88% 30.10 in 2.0 mi East 11.5 mph 19.6 mph 0.03 in Rain Rain
11:53 AM 64.0 °F 61.0 °F 90% 30.08 in 10.0 mi East 8.1 mph - 0.12 in   Overcast
12:53 PM 64.0 °F 59.0 °F 84% 30.06 in 9.0 mi East 11.5 mph 18.4 mph 0.00 in   Overcast
1:25 PM 64.4 °F 59.0 °F 83% 30.04 in 2.5 mi East 9.2 mph - 0.04 in Rain Light Rain
1:34 PM 64.4 °F 60.8 °F 88% 30.05 in 3.0 mi East 11.5 mph 16.1 mph 0.06 in Rain Light Rain
1:53 PM 63.0 °F 59.0 °F 87% 30.03 in 3.0 mi East 10.4 mph 19.6 mph 0.09 in Rain Light Rain
1:56 PM 62.6 °F 59.0 °F 88% 30.04 in 1.8 mi East 13.8 mph 19.6 mph 0.06 in Rain Rain
2:06 PM 62.6 °F 59.0 °F 88% 30.04 in 1.2 mi ESE 6.9 mph 18.4 mph 0.14 in Rain Heavy Rain
2:47 PM 62.6 °F 59.0 °F 88% 30.04 in 2.5 mi East 9.2 mph 18.4 mph 0.20 in   Overcast
2:53 PM 62.1 °F 59.0 °F 90% 30.03 in 2.5 mi ESE 8.1 mph 18.4 mph 0.20 in   Overcast
3:05 PM 62.6 °F 59.0 °F 88% 30.03 in 1.5 mi SE 6.9 mph 18.4 mph N/A   Overcast
3:24 PM 60.8 °F 59.0 °F 94% 30.03 in 2.0 mi SE 8.1 mph - N/A   Overcast
3:39 PM 60.8 °F 59.0 °F 94% 30.03 in 2.0 mi SE 6.9 mph - N/A   Overcast
3:53 PM 62.1 °F 59.0 °F 90% 30.02 in 2.0 mi SE 8.1 mph - N/A   Overcast
4:37 PM 62.6 °F 60.8 °F 94% 30.03 in 3.0 mi SE 8.1 mph - N/A   Overcast
4:53 PM 62.1 °F 59.0 °F 90% 30.04 in 6.0 mi SE 9.2 mph - N/A   Overcast
5:53 PM 64.0 °F 59.0 °F 84% 30.01 in 9.0 mi SSE 9.2 mph - N/A   Mostly Cloudy
6:39 PM 64.4 °F 59.0 °F 83% 30.02 in 8.0 mi ESE 5.8 mph - N/A   Scattered Clouds
6:53 PM 63.0 °F 57.9 °F 84% 30.01 in 8.0 mi ESE 8.1 mph - N/A   Scattered Clouds
7:53 PM 61.0 °F 55.9 °F 83% 30.01 in 9.0 mi ESE 9.2 mph - N/A   Partly Cloudy
8:41 PM 60.8 °F 55.4 °F 82% 30.03 in 10.0 mi ESE 6.9 mph - N/A   Mostly Cloudy
8:53 PM 59.0 °F 55.0 °F 87% 30.03 in 10.0 mi SE 9.2 mph - N/A   Mostly Cloudy
9:43 PM 59.0 °F 55.4 °F 88% 30.05 in 10.0 mi SSE 5.8 mph - N/A   Overcast
9:53 PM 57.9 °F 55.0 °F 90% 30.05 in 10.0 mi SSE 6.9 mph - N/A   Mostly Cloudy
10:02 PM 57.2 °F 53.6 °F 88% 30.05 in 10.0 mi SSE 4.6 mph - N/A   Mostly Cloudy
10:53 PM 57.0 °F 53.1 °F 87% 30.05 in 10.0 mi Calm Calm - N/A   Partly Cloudy
11:53 PM 54.0 °F 51.1 °F 90% 30.04 in 8.0 mi East 3.5 mph - N/A   Clear